ELB4TS LGTS-LGAV

Flight info

Callsign ELB4TS
Flight time 0h 41m
Altitude 27000
Route LEKPO UL617 SKP UM749 ROPOX
Aircraft A20N/M-SDE2E3FGHIRWXY/LB1

Departure

Time 2026-05-04 12:47
Airport Thessaloniki Macedonia International Airport (LGTS)

Arrival

Time 2026-05-04 13:28
Airport Athens Eleftherios Venizelos International Airport (LGAV)
Time Latitude Longitude Altitude Speed Heading
2026-05-04 12:07 40.52346 22.97534 11 ft 0 kts 45°
2026-05-04 12:35 40.52340 22.97526 11 ft 2 kts 45°
2026-05-04 12:35 40.52329 22.97512 11 ft 2 kts 45°
2026-05-04 12:35 40.52318 22.97498 11 ft 2 kts 45°
2026-05-04 12:36 40.52307 22.97484 10 ft 2 kts 45°
2026-05-04 12:36 40.52297 22.97470 10 ft 2 kts 45°
2026-05-04 12:36 40.52287 22.97456 10 ft 2 kts 44°
2026-05-04 12:36 40.52278 22.97439 10 ft 2 kts 77°
2026-05-04 12:37 40.52278 22.97420 10 ft 2 kts 103°
2026-05-04 12:37 40.52284 22.97402 10 ft 1 kts 129°
2026-05-04 12:37 40.52288 22.97396 10 ft 1 kts 138°
2026-05-04 12:37 40.52290 22.97393 10 ft 0 kts 136°
2026-05-04 12:41 40.52290 22.97394 10 ft 0 kts 136°
2026-05-04 12:42 40.52282 22.97404 10 ft 2 kts 133°
2026-05-04 12:42 40.52268 22.97423 10 ft 3 kts 135°
2026-05-04 12:42 40.52250 22.97446 10 ft 5 kts 135°
2026-05-04 12:42 40.52215 22.97493 11 ft 8 kts 136°
2026-05-04 12:43 40.52174 22.97553 11 ft 9 kts 122°
2026-05-04 12:43 40.52147 22.97629 12 ft 9 kts 114°
2026-05-04 12:43 40.52108 22.97700 13 ft 9 kts 134°
2026-05-04 12:43 40.52057 22.97767 13 ft 11 kts 134°
2026-05-04 12:44 40.52001 22.97851 14 ft 13 kts 116°
2026-05-04 12:44 40.51975 22.97977 15 ft 15 kts 98°
2026-05-04 12:44 40.51949 22.98114 16 ft 16 kts 106°
2026-05-04 12:44 40.51913 22.98300 17 ft 24 kts 103°
2026-05-04 12:45 40.51873 22.98506 18 ft 22 kts 107°
2026-05-04 12:45 40.51836 22.98683 19 ft 15 kts 125°
2026-05-04 12:45 40.51740 22.98686 19 ft 14 kts 195°
2026-05-04 12:45 40.51686 22.98603 19 ft 13 kts 282°
2026-05-04 12:46 40.51696 22.98557 19 ft 0 kts 283°
2026-05-04 12:46 40.51703 22.98517 18 ft 19 kts 283°
2026-05-04 12:46 40.51810 22.97951 15 ft 105 kts 284°
2026-05-04 12:47 40.52046 22.96724 93 ft 162 kts 283°
2026-05-04 12:47 40.52331 22.95274 831 ft 166 kts 285°
2026-05-04 12:47 40.52635 22.93840 1726 ft 167 kts 289°
2026-05-04 12:47 40.52965 22.92377 2492 ft 173 kts 289°
2026-05-04 12:48 40.53292 22.90900 3393 ft 167 kts 289°
2026-05-04 12:48 40.53592 22.89514 4301 ft 157 kts 290°
2026-05-04 12:48 40.53881 22.88170 5018 ft 156 kts 290°
2026-05-04 12:48 40.54171 22.86803 5688 ft 158 kts 290°
2026-05-04 12:49 40.54451 22.85419 6351 ft 161 kts 284°
2026-05-04 12:49 40.54238 22.83970 6945 ft 175 kts 234°
2026-05-04 12:49 40.53205 22.83055 7412 ft 194 kts 197°
2026-05-04 12:49 40.51820 22.83085 7877 ft 208 kts 151°
2026-05-04 12:50 40.50608 22.84170 8400 ft 219 kts 136°
2026-05-04 12:50 40.49401 22.85506 8915 ft 236 kts 136°
2026-05-04 12:50 40.48064 22.86863 9528 ft 249 kts 140°
2026-05-04 12:50 40.46632 22.88176 10357 ft 255 kts 142°
2026-05-04 12:51 40.45169 22.89427 11246 ft 254 kts 143°
2026-05-04 12:51 40.43661 22.90671 12024 ft 258 kts 143°
2026-05-04 12:51 40.42135 22.91903 12803 ft 261 kts 144°
2026-05-04 12:51 40.40584 22.93142 13595 ft 263 kts 144°
2026-05-04 12:52 40.39031 22.94379 14360 ft 265 kts 144°
2026-05-04 12:52 40.37470 22.95618 15141 ft 266 kts 145°
2026-05-04 12:52 40.35898 22.96864 15926 ft 266 kts 146°
2026-05-04 12:52 40.34297 22.98129 16741 ft 267 kts 146°
2026-05-04 12:53 40.32721 22.99373 17512 ft 268 kts 146°
2026-05-04 12:53 40.31136 23.00622 18253 ft 269 kts 147°
2026-05-04 12:53 40.29542 23.01877 18957 ft 270 kts 147°
2026-05-04 12:53 40.27922 23.03148 19626 ft 272 kts 147°
2026-05-04 12:54 40.26290 23.04429 20282 ft 275 kts 147°
2026-05-04 12:54 40.24634 23.05732 20926 ft 279 kts 146°
2026-05-04 12:54 40.22970 23.07039 21539 ft 282 kts 146°
2026-05-04 12:54 40.21278 23.08368 22156 ft 286 kts 146°
2026-05-04 12:55 40.19576 23.09704 22785 ft 289 kts 146°
2026-05-04 12:55 40.17847 23.11062 23388 ft 292 kts 146°
2026-05-04 12:55 40.16111 23.12423 23982 ft 295 kts 146°
2026-05-04 12:55 40.14329 23.13820 24532 ft 300 kts 146°
2026-05-04 12:56 40.12513 23.15209 25047 ft 306 kts 148°
2026-05-04 12:56 40.10601 23.16467 25547 ft 311 kts 153°
2026-05-04 12:56 40.08581 23.17561 26039 ft 317 kts 156°
2026-05-04 12:56 40.06530 23.18572 26513 ft 322 kts 156°
2026-05-04 12:57 40.04422 23.19605 26952 ft 327 kts 156°
2026-05-04 12:57 40.02264 23.20663 27116 ft 332 kts 156°
2026-05-04 12:57 40.00108 23.21720 27123 ft 331 kts 156°
2026-05-04 12:57 39.97953 23.22776 27124 ft 331 kts 156°
2026-05-04 12:58 39.95776 23.23844 27120 ft 330 kts 156°
2026-05-04 12:58 39.93639 23.24892 27119 ft 330 kts 156°
2026-05-04 12:58 39.91480 23.25955 27120 ft 331 kts 156°
2026-05-04 12:58 39.89321 23.27015 27111 ft 331 kts 155°
2026-05-04 12:59 39.87170 23.28074 27117 ft 333 kts 155°
2026-05-04 12:59 39.85007 23.29134 27125 ft 334 kts 155°
2026-05-04 12:59 39.82830 23.30200 27123 ft 333 kts 155°
2026-05-04 12:59 39.80651 23.31264 27121 ft 333 kts 155°
2026-05-04 13:00 39.78485 23.32324 27127 ft 333 kts 155°
2026-05-04 13:00 39.76330 23.33378 27118 ft 333 kts 155°
2026-05-04 13:00 39.74146 23.34446 27127 ft 333 kts 155°
2026-05-04 13:00 39.71981 23.35503 27121 ft 333 kts 155°
2026-05-04 13:01 39.69795 23.36573 27112 ft 334 kts 155°
2026-05-04 13:01 39.67634 23.37628 27119 ft 336 kts 155°
2026-05-04 13:01 39.65444 23.38696 27112 ft 336 kts 155°
2026-05-04 13:01 39.63247 23.39767 27126 ft 336 kts 155°
2026-05-04 13:02 39.61071 23.40823 27133 ft 335 kts 155°
2026-05-04 13:02 39.58872 23.41894 27124 ft 334 kts 155°
2026-05-04 13:02 39.56714 23.42944 27121 ft 337 kts 155°
2026-05-04 13:02 39.54442 23.44053 27129 ft 357 kts 155°
2026-05-04 13:03 39.52056 23.45218 27132 ft 376 kts 155°
2026-05-04 13:03 39.50180 23.46134 27134 ft 390 kts 155°
2026-05-04 13:03 39.49795 23.46321 27135 ft 392 kts 155°
2026-05-04 13:03 39.48532 23.46935 27150 ft 401 kts 155°
2026-05-04 13:04 39.47066 23.47647 27147 ft 411 kts 156°
2026-05-04 13:04 39.44468 23.48904 27136 ft 427 kts 156°
2026-05-04 13:04 39.41667 23.50258 27129 ft 442 kts 156°
2026-05-04 13:04 39.40583 23.50782 27132 ft 447 kts 156°
2026-05-04 13:05 39.37614 23.52213 27126 ft 461 kts 156°
2026-05-04 13:05 39.34543 23.53692 27121 ft 473 kts 156°
2026-05-04 13:05 39.31464 23.55173 27123 ft 478 kts 156°
2026-05-04 13:05 39.28337 23.56677 27126 ft 479 kts 156°
2026-05-04 13:06 39.25233 23.58170 27134 ft 481 kts 156°
2026-05-04 13:06 39.22084 23.59671 27138 ft 480 kts 158°
2026-05-04 13:06 39.18877 23.60955 27128 ft 482 kts 162°
2026-05-04 13:06 39.15617 23.61905 27137 ft 482 kts 167°
2026-05-04 13:07 39.12297 23.62525 27128 ft 483 kts 171°
2026-05-04 13:07 39.08959 23.63018 27131 ft 483 kts 171°
2026-05-04 13:07 39.05615 23.63487 27129 ft 482 kts 171°
2026-05-04 13:07 39.02304 23.63956 27114 ft 477 kts 171°
2026-05-04 13:08 39.00486 23.64219 27099 ft 466 kts 171°
2026-05-04 13:08 38.97353 23.64685 27125 ft 447 kts 171°
2026-05-04 13:08 38.94302 23.65137 27112 ft 428 kts 172°
2026-05-04 13:08 38.91454 23.65555 27112 ft 404 kts 172°
2026-05-04 13:09 38.88700 23.65959 27113 ft 383 kts 172°
2026-05-04 13:09 38.86147 23.66331 27014 ft 366 kts 172°
2026-05-04 13:09 38.83623 23.66700 26589 ft 363 kts 172°
2026-05-04 13:09 38.81123 23.67067 26119 ft 361 kts 172°
2026-05-04 13:10 38.78633 23.67432 25605 ft 356 kts 171°
2026-05-04 13:10 38.76152 23.67795 25158 ft 366 kts 171°
2026-05-04 13:10 38.73603 23.68173 24646 ft 375 kts 171°
2026-05-04 13:10 38.71013 23.68556 24110 ft 376 kts 171°
2026-05-04 13:11 38.68425 23.68933 23580 ft 371 kts 171°
2026-05-04 13:11 38.65888 23.69303 23145 ft 364 kts 171°
2026-05-04 13:11 38.63354 23.69673 22966 ft 362 kts 171°
2026-05-04 13:11 38.61218 23.69985 22935 ft 360 kts 171°
2026-05-04 13:12 38.58407 23.70394 22883 ft 361 kts 171°
2026-05-04 13:12 38.55897 23.70760 22685 ft 363 kts 171°
2026-05-04 13:12 38.53389 23.71128 22300 ft 361 kts 172°
2026-05-04 13:12 38.50907 23.71489 21887 ft 358 kts 172°
2026-05-04 13:13 38.48443 23.71845 21520 ft 355 kts 172°
2026-05-04 13:13 38.46010 23.72198 21105 ft 352 kts 172°
2026-05-04 13:13 38.43578 23.72553 20665 ft 351 kts 172°
2026-05-04 13:13 38.41122 23.72909 20222 ft 349 kts 172°
2026-05-04 13:14 38.38725 23.73257 19788 ft 348 kts 172°
2026-05-04 13:14 38.36344 23.73603 19368 ft 346 kts 173°
2026-05-04 13:14 38.33958 23.73947 18997 ft 342 kts 173°
2026-05-04 13:14 38.31580 23.74290 18604 ft 339 kts 173°
2026-05-04 13:15 38.29266 23.74623 18202 ft 337 kts 173°
2026-05-04 13:15 38.26904 23.74963 17802 ft 335 kts 173°
2026-05-04 13:15 38.24621 23.75290 17404 ft 334 kts 173°
2026-05-04 13:15 38.22298 23.75625 16963 ft 333 kts 173°
2026-05-04 13:16 38.19993 23.75951 16555 ft 332 kts 175°
2026-05-04 13:16 38.17689 23.75865 16096 ft 332 kts 190°
2026-05-04 13:16 38.15468 23.75040 15684 ft 329 kts 206°
2026-05-04 13:16 38.13482 23.73615 15283 ft 326 kts 216°
2026-05-04 13:17 38.11518 23.72212 14872 ft 328 kts 203°
2026-05-04 13:17 38.09312 23.71317 14240 ft 336 kts 197°
2026-05-04 13:17 38.07005 23.70560 13558 ft 341 kts 195°
2026-05-04 13:17 38.04740 23.69855 12890 ft 336 kts 195°
2026-05-04 13:18 38.02483 23.69168 12213 ft 329 kts 195°
2026-05-04 13:18 38.00270 23.68512 11537 ft 322 kts 195°
2026-05-04 13:18 37.98040 23.67866 10829 ft 317 kts 195°
2026-05-04 13:18 37.95913 23.67255 10138 ft 313 kts 195°
2026-05-04 13:19 37.93824 23.66664 9588 ft 302 kts 195°
2026-05-04 13:19 37.91790 23.66095 9092 ft 292 kts 195°
2026-05-04 13:19 37.89803 23.65540 8415 ft 290 kts 195°
2026-05-04 13:19 37.87830 23.64987 7675 ft 290 kts 195°
2026-05-04 13:20 37.85878 23.64434 6931 ft 289 kts 195°
2026-05-04 13:20 37.83926 23.63876 6188 ft 288 kts 195°
2026-05-04 13:20 37.82007 23.63326 5570 ft 281 kts 195°
2026-05-04 13:20 37.80104 23.62773 4940 ft 276 kts 194°
2026-05-04 13:21 37.78221 23.62526 4271 ft 274 kts 172°
2026-05-04 13:21 37.76506 23.63361 3916 ft 258 kts 142°
2026-05-04 13:21 37.75364 23.64997 3628 ft 245 kts 120°
2026-05-04 13:21 37.74497 23.66948 3347 ft 259 kts 112°
2026-05-04 13:22 37.74144 23.69118 3049 ft 252 kts 82°
2026-05-04 13:22 37.74554 23.71219 2989 ft 237 kts 68°
2026-05-04 13:22 37.75121 23.73110 2983 ft 228 kts 65°
2026-05-04 13:22 37.75709 23.74961 2984 ft 228 kts 65°
2026-05-04 13:23 37.76306 23.76815 2983 ft 227 kts 65°
2026-05-04 13:23 37.76927 23.78661 2982 ft 226 kts 60°
2026-05-04 13:23 37.77786 23.80260 2972 ft 215 kts 45°
2026-05-04 13:23 37.78837 23.81515 2963 ft 198 kts 36°
2026-05-04 13:24 37.79876 23.82514 3046 ft 181 kts 34°
2026-05-04 13:24 37.80854 23.83416 3068 ft 166 kts 34°
2026-05-04 13:24 37.81755 23.84255 2911 ft 157 kts 34°
2026-05-04 13:25 37.83431 23.85839 2533 ft 148 kts 34°
2026-05-04 13:25 37.84251 23.86618 2335 ft 148 kts 35°
2026-05-04 13:25 37.85062 23.87391 2121 ft 137 kts 34°
2026-05-04 13:25 37.85794 23.88090 1925 ft 130 kts 35°
2026-05-04 13:26 37.86509 23.88771 1769 ft 129 kts 34°
2026-05-04 13:26 37.87233 23.89461 1618 ft 129 kts 35°
2026-05-04 13:26 37.87952 23.90147 1451 ft 129 kts 36°
2026-05-04 13:26 37.88667 23.90828 1285 ft 129 kts 35°
2026-05-04 13:27 37.89383 23.91512 1116 ft 128 kts 37°
2026-05-04 13:27 37.90111 23.92202 938 ft 128 kts 38°
2026-05-04 13:27 37.90836 23.92895 763 ft 128 kts 37°
2026-05-04 13:27 37.91559 23.93566 590 ft 129 kts 37°
2026-05-04 13:28 37.92279 23.94251 412 ft 129 kts 39°
2026-05-04 13:28 37.92989 23.94930 317 ft 121 kts 35°
2026-05-04 13:28 37.93566 23.95478 316 ft 85 kts 38°
2026-05-04 13:28 37.93919 23.95720 316 ft 33 kts
2026-05-04 13:29 37.94032 23.95716 316 ft 0 kts 305°
2026-05-04 13:29 37.94035 23.95710 316 ft 1 kts 308°
2026-05-04 13:30 37.94042 23.95700 316 ft 4 kts 310°
2026-05-04 13:30 37.94067 23.95659 316 ft 6 kts 307°
2026-05-04 13:30 37.94101 23.95603 316 ft 8 kts 307°
2026-05-04 13:30 37.94117 23.95577 316 ft 8 kts 307°